,,Stat6,,Stat2,,Stat8,,Stat9,,Stat10,,Wind1,,Wind1,
time,status,PA1M_AVG,status,PR1M_SUM,status,RH1M_AVG,status,SR1M_AVG,status,TA1M_AVG,status,W1dAve1m,status,W1sAve1m,
2007-06-29, 00:00:00,VALID,919.66,VALID,0,VALID,100,VALID,-0.0679233,VALID,20.8004,VALID,24,VALID,0,
2007-06-29, 00:01:00,VALID,919.658,VALID,0,VALID,100,VALID,-0.0509425,VALID,20.8104,VALID,24,VALID,0,
2007-06-29, 00:02:00,VALID,919.645,VALID,0,VALID,100,VALID,-0.0509425,VALID,20.8107,VALID,24,VALID,0,
2007-06-29, 00:03:00,VALID,919.642,VALID,0,VALID,100,VALID,-0.0509425,VALID,20.8072,VALID,24,VALID,0.0476017,
2007-06-29, 00:04:00,VALID,919.652,VALID,0,VALID,100,VALID,-0.0849042,VALID,20.814,VALID,24,VALID,0.226004,
2007-06-29, 00:05:00,VALID,919.647,VALID,0,VALID,100,VALID,-0.0339617,VALID,20.8262,VALID,24,VALID,0.236662,
2007-06-29, 00:06:00,VALID,919.639,VALID,0,VALID,100,VALID,-0.0339617,VALID,20.8297,VALID,24,VALID,0.293527,
2007-06-29, 00:07:00,VALID,919.621,VALID,0,VALID,100,VALID,-0.0849042,VALID,20.8334,VALID,24,VALID,0.194404,
2007-06-29, 00:08:00,VALID,919.615,VALID,0,VALID,100,VALID,-0.0339617,VALID,20.8426,VALID,24,VALID,0.11441,
2007-06-29, 00:09:00,VALID,919.598,VALID,0,VALID,100,VALID,-0.0509425,VALID,20.8619,VALID,24,VALID,0.124306,
2007-06-29, 00:10:00,VALID,919.564,VALID,0,VALID,100,VALID,-0.0509425,VALID,20.8813,VALID,24,VALID,0.0690696,
2007-06-29, 00:11:00,VALID,919.561,VALID,0,VALID,100,VALID,-0.0509425,VALID,20.8948,VALID,24,VALID,0.0247713,
2007-06-29, 00:12:00,VALID,919.524,VALID,0,VALID,100,VALID,-0.0339617,VALID,20.9016,VALID,24,VALID,0.0733613,
2007-06-29, 00:13:00,VALID,919.506,VALID,0,VALID,100,VALID,-0.0849042,VALID,20.9046,VALID,24,VALID,0,
2007-06-29, 00:14:00,VALID,919.512,VALID,0,VALID,100,VALID,-0.0509425,VALID,20.9143,VALID,24,VALID,0,
2007-06-29, 00:15:00,VALID,919.508,VALID,0,VALID,99.8522,VALID,-0.0679233,VALID,20.8984,VALID,24,VALID,0.0751953,
2007-06-29, 00:16:00,VALID,919.497,VALID,0,VALID,99.6493,VALID,-0.0849042,VALID,20.8694,VALID,24,VALID,0.0214844,
2007-06-29, 00:17:00,VALID,919.481,VALID,0,VALID,99.6493,VALID,-0.101885,VALID,20.8594,VALID,24,VALID,0.0165551,
2007-06-29, 00:18:00,VALID,919.462,VALID,0,VALID,99.5704,VALID,-0.0509425,VALID,20.8559,VALID,24,VALID,0,
2007-06-29, 00:19:00,VALID,919.439,VALID,0,VALID,99.47,VALID,-0.0679233,VALID,20.8462,VALID,24,VALID,0,
2007-06-29, 00:20:00,VALID,919.438,VALID,0,VALID,99.4051,VALID,-0.0509425,VALID,20.8332,VALID,24,VALID,0,
2007-06-29, 00:21:00,VALID,919.425,VALID,0,VALID,99.4738,VALID,-0.0849042,VALID,20.8172,VALID,24,VALID,0,
2007-06-29, 00:22:00,VALID,919.429,VALID,0,VALID,99.531,VALID,-0.0679233,VALID,20.8107,VALID,24,VALID,0,
2007-06-29, 00:23:00,VALID,919.418,VALID,0,VALID,99.5221,VALID,-0.0509425,VALID,20.801,VALID,24,VALID,0,
2007-06-29, 00:24:00,VALID,919.414,VALID,0,VALID,99.3454,VALID,-0.0849042,VALID,20.788,VALID,24,VALID,0,
2007-06-29, 00:25:00,VALID,919.422,VALID,0,VALID,99.3072,VALID,-0.101885,VALID,20.775,VALID,325,VALID,0.360328,
2007-06-29, 00:26:00,VALID,919.427,VALID,0,VALID,99.2894,VALID,-0.0849042,VALID,20.775,VALID,292,VALID,0.432706,
2007-06-29, 00:27:00,VALID,919.41,VALID,0,VALID,99.1228,VALID,-0.101885,VALID,20.7485,VALID,277,VALID,0.482422,
2007-06-29, 00:28:00,VALID,919.391,VALID,0,VALID,99.086,VALID,-0.0679233,VALID,20.7328,VALID,277,VALID,0.0381324,
2007-06-29, 00:29:00,VALID,919.386,VALID,0,VALID,99.1457,VALID,-0.0509425,VALID,20.729,VALID,277,VALID,0.00990854,
2007-06-29, 00:30:00,VALID,919.383,VALID,0,VALID,99.1559,VALID,0,VALID,20.7253,VALID,277,VALID,0.0635417,
2007-06-29, 00:31:00,VALID,919.386,VALID,0,VALID,99.1801,VALID,-0.0169808,VALID,20.7412,VALID,277,VALID,0.101376,
2007-06-29, 00:32:00,VALID,919.406,VALID,0,VALID,99.0822,VALID,0,VALID,20.7477,VALID,277,VALID,0.149503,
2007-06-29, 00:33:00,VALID,919.412,VALID,0,VALID,99.0542,VALID,-0.0169808,VALID,20.7215,VALID,277,VALID,0.214939,
2007-06-29, 00:34:00,VALID,919.424,VALID,0,VALID,98.941,VALID,-0.0169808,VALID,20.7155,VALID,277,VALID,0.0962936,
2007-06-29, 00:35:00,VALID,919.431,VALID,0,VALID,98.9766,VALID,0,VALID,20.7123,VALID,271,VALID,0.360742,
2007-06-29, 00:36:00,VALID,919.424,VALID,0,VALID,99.1076,VALID,0,VALID,20.7285,VALID,268,VALID,0.0525073,
2007-06-29, 00:37:00,VALID,919.413,VALID,0,VALID,99.086,VALID,0,VALID,20.725,VALID,268,VALID,0.177641,
2007-06-29, 00:38:00,VALID,919.402,VALID,0,VALID,99.0402,VALID,-0.0169808,VALID,20.7345,VALID,268,VALID,0.117551,
2007-06-29, 00:39:00,VALID,919.398,VALID,0,VALID,99.0186,VALID,0.0169808,VALID,20.7312,VALID,268,VALID,0,
2007-06-29, 00:40:00,VALID,919.4,VALID,0,VALID,98.9359,VALID,0,VALID,20.7242,VALID,268,VALID,0,
2007-06-29, 00:41:00,VALID,919.395,VALID,0,VALID,98.8253,VALID,0.0169808,VALID,20.725,VALID,268,VALID,0.185138,
2007-06-29, 00:42:00,VALID,919.38,VALID,0,VALID,98.674,VALID,0.0339617,VALID,20.6858,VALID,268,VALID,0.380907,
2007-06-29, 00:43:00,VALID,919.374,VALID,0,VALID,98.4921,VALID,0.0169808,VALID,20.6239,VALID,268,VALID,0.441315,
2007-06-29, 00:44:00,VALID,919.368,VALID,0,VALID,98.6078,VALID,0,VALID,20.5687,VALID,268,VALID,0.517361,
2007-06-29, 00:45:00,VALID,919.363,VALID,0,VALID,99.1038,VALID,0.0169808,VALID,20.5495,VALID,169,VALID,0.66311,
2007-06-29, 00:46:00,VALID,919.364,VALID,0,VALID,99.6264,VALID,0.0169808,VALID,20.523,VALID,118,VALID,0.488735,
2007-06-29, 00:47:00,VALID,919.364,VALID,0,VALID,99.8362,VALID,0.0169808,VALID,20.4913,VALID,118,VALID,0.533288,
2007-06-29, 00:48:00,VALID,919.349,VALID,0,VALID,99.9878,VALID,0,VALID,20.4554,VALID,118,VALID,0.443359,
2007-06-29, 00:49:00,VALID,919.352,VALID,0,VALID,100,VALID,-0.0169808,VALID,20.4264,VALID,118,VALID,0.257813,
2007-06-29, 00:50:00,VALID,919.378,VALID,0,VALID,100,VALID,0,VALID,20.394,VALID,118,VALID,0.204033,
2007-06-29, 00:51:00,VALID,919.383,VALID,0,VALID,100,VALID,0,VALID,20.3675,VALID,118,VALID,0.0679687,
2007-06-29, 00:52:00,VALID,919.39,VALID,0,VALID,100,VALID,0,VALID,20.2961,VALID,118,VALID,0.358073,
2007-06-29, 00:53:00,VALID,919.392,VALID,0,VALID,100,VALID,-0.0169808,VALID,20.2607,VALID,118,VALID,0.586868,
2007-06-29, 00:54:00,VALID,919.402,VALID,0,VALID,100,VALID,0,VALID,20.2152,VALID,114,VALID,0.699128,
2007-06-29, 00:55:00,VALID,919.398,VALID,0,VALID,100,VALID,-0.0169808,VALID,20.2028,VALID,106,VALID,0.691406,
2007-06-29, 00:56:00,VALID,919.39,VALID,0,VALID,100,VALID,0.0169808,VALID,20.1903,VALID,106,VALID,0.669071,
2007-06-29, 00:57:00,VALID,919.377,VALID,0,VALID,100,VALID,0,VALID,20.1601,VALID,103,VALID,0.821615,
2007-06-29, 00:58:00,VALID,919.382,VALID,0,VALID,100,VALID,0,VALID,20.1179,VALID,102,VALID,0.762738,
2007-06-29, 00:59:00,VALID,919.373,VALID,0,VALID,100,VALID,0,VALID,20.0854,VALID,108,VALID,0.802871,
2007-06-29, 01:00:00,VALID,919.384,VALID,0,VALID,100,VALID,-0.0169808,VALID,20.053,VALID,110,VALID,0.866477,
2007-06-29, 01:01:00,VALID,919.392,VALID,0,VALID,100,VALID,0,VALID,20.0403,VALID,114,VALID,0.766406,
2007-06-29, 01:02:00,VALID,919.394,VALID,0,VALID,100,VALID,-0.0169808,VALID,20.024,VALID,130,VALID,0.747582,
2007-06-29, 01:03:00,VALID,919.377,VALID,0,VALID,100,VALID,0.0169808,VALID,20.0108,VALID,133,VALID,0.718023,
2007-06-29, 01:04:00,VALID,919.349,VALID,0,VALID,100,VALID,0,VALID,19.9851,VALID,127,VALID,0.752477,
2007-06-29, 01:05:00,VALID,919.326,VALID,0,VALID,100,VALID,0,VALID,19.9621,VALID,127,VALID,0.539773,
2007-06-29, 01:06:00,VALID,919.303,VALID,0,VALID,100,VALID,0,VALID,19.9362,VALID,116,VALID,0.530342,
2007-06-29, 01:07:00,VALID,919.304,VALID,0,VALID,100,VALID,0.0169808,VALID,19.9065,VALID,114,VALID,0.353277,
2007-06-29, 01:08:00,VALID,919.294,VALID,0,VALID,100,VALID,-0.0169808,VALID,19.9105,VALID,114,VALID,0.289885,
2007-06-29, 01:09:00,VALID,919.292,VALID,0,VALID,100,VALID,0.0169808,VALID,19.9,VALID,114,VALID,0.383976,
2007-06-29, 01:10:00,VALID,919.28,VALID,0,VALID,100,VALID,0.0509425,VALID,19.9167,VALID,114,VALID,0.420545,
2007-06-29, 01:11:00,VALID,919.262,VALID,0,VALID,100,VALID,0.0169808,VALID,19.9262,VALID,129,VALID,0.579723,
2007-06-29, 01:12:00,VALID,919.248,VALID,0,VALID,100,VALID,0,VALID,19.9392,VALID,135,VALID,0.446615,
2007-06-29, 01:13:00,VALID,919.218,VALID,0,VALID,100,VALID,0,VALID,19.9456,VALID,135,VALID,0.563408,
2007-06-29, 01:14:00,VALID,919.198,VALID,0,VALID,100,VALID,0,VALID,19.9624,VALID,140,VALID,0.510938,
2007-06-29, 01:15:00,VALID,919.19,VALID,0,VALID,100,VALID,0,VALID,19.9686,VALID,142,VALID,0.580305,
2007-06-29, 01:16:00,VALID,919.197,VALID,0,VALID,100,VALID,-0.0339617,VALID,19.9686,VALID,142,VALID,0.643415,
2007-06-29, 01:17:00,VALID,919.198,VALID,0,VALID,100,VALID,-0.0169808,VALID,19.9686,VALID,142,VALID,0.463086,
2007-06-29, 01:18:00,VALID,919.188,VALID,0,VALID,100,VALID,0,VALID,19.9751,VALID,151,VALID,0.654433,
2007-06-29, 01:19:00,VALID,919.164,VALID,0,VALID,100,VALID,0.0169808,VALID,19.9719,VALID,170,VALID,0.568056,
2007-06-29, 01:20:00,VALID,919.137,VALID,0,VALID,100,VALID,0.0169808,VALID,19.9716,VALID,169,VALID,0.45348,
2007-06-29, 01:21:00,VALID,919.115,VALID,0,VALID,100,VALID,0.0169808,VALID,19.9684,VALID,169,VALID,0.2883,
2007-06-29, 01:22:00,VALID,919.103,VALID,0,VALID,100,VALID,0,VALID,19.9589,VALID,162,VALID,0.537109,
2007-06-29, 01:23:00,VALID,919.089,VALID,0,VALID,100,VALID,0,VALID,19.9327,VALID,162,VALID,0.516352,
2007-06-29, 01:24:00,VALID,919.092,VALID,0,VALID,100,VALID,0,VALID,19.907,VALID,162,VALID,0.394985,
2007-06-29, 01:25:00,VALID,919.083,VALID,0,VALID,100,VALID,0,VALID,19.8845,VALID,162,VALID,0.311047,
2007-06-29, 01:26:00,VALID,919.075,VALID,0,VALID,100,VALID,-0.0339617,VALID,19.8418,VALID,162,VALID,0.278846,
2007-06-29, 01:27:00,VALID,919.033,VALID,0,VALID,100,VALID,0,VALID,19.7452,VALID,139,VALID,0.522693,
2007-06-29, 01:28:00,VALID,919.009,VALID,0,VALID,100,VALID,0,VALID,19.6991,VALID,104,VALID,0.602679,
2007-06-29, 01:29:00,VALID,918.981,VALID,0,VALID,100,VALID,0,VALID,19.6771,VALID,103,VALID,0.617006,
2007-06-29, 01:30:00,VALID,918.974,VALID,0,VALID,100,VALID,-0.0509425,VALID,19.6649,VALID,103,VALID,0.662464,
2007-06-29, 01:31:00,VALID,918.963,VALID,0,VALID,100,VALID,-0.101885,VALID,19.7397,VALID,103,VALID,0.433222,
2007-06-29, 01:32:00,VALID,918.986,VALID,0,VALID,100,VALID,-0.0679233,VALID,19.7919,VALID,103,VALID,0.227148,
2007-06-29, 01:33:00,VALID,918.988,VALID,0,VALID,100,VALID,0,VALID,19.7966,VALID,103,VALID,0.188988,
2007-06-29, 01:34:00,VALID,918.994,VALID,0,VALID,100,VALID,0,VALID,19.8059,VALID,103,VALID,0.0912729,
2007-06-29, 01:35:00,VALID,918.98,VALID,0,VALID,100,VALID,0.0509425,VALID,19.7832,VALID,103,VALID,0.111737,
2007-06-29, 01:36:00,VALID,918.969,VALID,0,VALID,100,VALID,0.0169808,VALID,19.7639,VALID,103,VALID,0.523619,
2007-06-29, 01:37:00,VALID,918.953,VALID,0,VALID,100,VALID,0.0169808,VALID,19.7964,VALID,103,VALID,0.696403,
2007-06-29, 01:38:00,VALID,918.938,VALID,0,VALID,100,VALID,0.0339617,VALID,19.7342,VALID,103,VALID,0.73274,
2007-06-29, 01:39:00,VALID,918.925,VALID,0,VALID,100,VALID,0.0339617,VALID,19.7153,VALID,103,VALID,0.712153,
2007-06-29, 01:40:00,VALID,918.927,VALID,0,VALID,100,VALID,0.0169808,VALID,19.6961,VALID,103,VALID,0.678385,
2007-06-29, 01:41:00,VALID,918.917,VALID,0,VALID,100,VALID,0.0339617,VALID,19.6604,VALID,103,VALID,0.543445,
2007-06-29, 01:42:00,VALID,918.918,VALID,0,VALID,100,VALID,0.0509425,VALID,19.6172,VALID,103,VALID,0.392223,
2007-06-29, 01:43:00,VALID,918.927,VALID,0,VALID,100,VALID,0.0339617,VALID,19.5788,VALID,103,VALID,0.192522,
2007-06-29, 01:44:00,VALID,918.925,VALID,0,VALID,100,VALID,0,VALID,19.5368,VALID,103,VALID,0.158507,
2007-06-29, 01:45:00,VALID,918.922,VALID,0,VALID,100,VALID,-0.0849042,VALID,19.5026,VALID,103,VALID,0.15997,
2007-06-29, 01:46:00,VALID,918.893,VALID,0,VALID,100,VALID,-0.0679233,VALID,19.4602,VALID,103,VALID,0.342988,
2007-06-29, 01:47:00,VALID,918.855,VALID,0,VALID,100,VALID,-0.0509425,VALID,19.4113,VALID,103,VALID,0.401163,
2007-06-29, 01:48:00,VALID,918.837,VALID,0,VALID,100,VALID,-0.0679233,VALID,19.3758,VALID,103,VALID,0.505149,
2007-06-29, 01:49:00,VALID,918.816,VALID,0,VALID,100,VALID,-0.101885,VALID,19.3531,VALID,103,VALID,0.608285,
2007-06-29, 01:50:00,VALID,918.814,VALID,0,VALID,100,VALID,-0.101885,VALID,19.3694,VALID,103,VALID,0.508185,
2007-06-29, 01:51:00,VALID,918.824,VALID,0,VALID,100,VALID,-0.101885,VALID,19.3599,VALID,103,VALID,0.658736,
2007-06-29, 01:52:00,VALID,918.82,VALID,0,VALID,100,VALID,-0.0849042,VALID,19.3861,VALID,103,VALID,0.707732,
2007-06-29, 01:53:00,VALID,918.806,VALID,0,VALID,100,VALID,-0.0679233,VALID,19.4377,VALID,103,VALID,0.770275,
2007-06-29, 01:54:00,VALID,918.784,VALID,0,VALID,100,VALID,-0.0679233,VALID,19.4862,VALID,103,VALID,0.800876,
2007-06-29, 01:55:00,VALID,918.765,VALID,0,VALID,100,VALID,-0.0509425,VALID,19.5283,VALID,103,VALID,0.833757,
2007-06-29, 01:56:00,VALID,918.747,VALID,0,VALID,100,VALID,-0.0679233,VALID,19.5483,VALID,123,VALID,0.812678,
2007-06-29, 01:57:00,VALID,918.756,VALID,0,VALID,100,VALID,-0.0339617,VALID,19.5473,VALID,123,VALID,0.597747,
2007-06-29, 01:58:00,VALID,918.745,VALID,0,VALID,100,VALID,-0.0849042,VALID,19.561,VALID,123,VALID,0.71946,
2007-06-29, 01:59:00,VALID,918.767,VALID,0,VALID,100,VALID,-0.0679233,VALID,19.574,VALID,123,VALID,0.491629,
2007-06-29, 02:00:00,VALID,918.768,VALID,0,VALID,100,VALID,-0.101885,VALID,19.5872,VALID,123,VALID,0.0768821,
2007-06-29, 02:01:00,VALID,918.753,VALID,0,VALID,100,VALID,-0.0679233,VALID,19.5967,VALID,124,VALID,0.182165,
2007-06-29, 02:02:00,VALID,918.736,VALID,0,VALID,100,VALID,-0.0849042,VALID,19.6094,VALID,136,VALID,0.339504,
2007-06-29, 02:03:00,VALID,918.716,VALID,0,VALID,100,VALID,-0.0849042,VALID,19.6289,VALID,136,VALID,0.0795785,
2007-06-29, 02:04:00,VALID,918.703,VALID,0,VALID,100,VALID,-0.101885,VALID,19.6389,VALID,136,VALID,0.297447,
2007-06-29, 02:05:00,VALID,918.691,VALID,0,VALID,100,VALID,-0.0849042,VALID,19.6489,VALID,136,VALID,0.0888889,
2007-06-29, 02:06:00,VALID,918.663,VALID,0,VALID,100,VALID,-0.0679233,VALID,19.6681,VALID,136,VALID,0.00223214,
2007-06-29, 02:07:00,VALID,918.639,VALID,0,VALID,100,VALID,-0.101885,VALID,19.6806,VALID,136,VALID,0.093149,
2007-06-29, 02:08:00,VALID,918.608,VALID,0,VALID,100,VALID,-0.0679233,VALID,19.6781,VALID,135,VALID,0.378196,
2007-06-29, 02:09:00,VALID,918.599,VALID,0,VALID,100,VALID,-0.101885,VALID,19.6681,VALID,121,VALID,0.432405,
2007-06-29, 02:10:00,VALID,918.602,VALID,0,VALID,100,VALID,-0.0509425,VALID,19.6641,VALID,121,VALID,0.283558,
2007-06-29, 02:11:00,VALID,918.588,VALID,0,VALID,100,VALID,-0.0679233,VALID,19.7235,VALID,121,VALID,0.177344,
2007-06-29, 02:12:00,VALID,918.574,VALID,0,VALID,100,VALID,-0.0849042,VALID,19.7228,VALID,121,VALID,0,
2007-06-29, 02:13:00,VALID,918.553,VALID,0,VALID,100,VALID,-0.101885,VALID,19.7425,VALID,121,VALID,0.114524,
2007-06-29, 02:14:00,VALID,918.529,VALID,0,VALID,100,VALID,-0.0849042,VALID,19.7649,VALID,122,VALID,0.106286,
2007-06-29, 02:15:00,VALID,918.512,VALID,0,VALID,100,VALID,-0.101885,VALID,19.7979,VALID,122,VALID,0,
2007-06-29, 02:16:00,VALID,918.497,VALID,0,VALID,100,VALID,-0.0849042,VALID,19.8066,VALID,122,VALID,0,
2007-06-29, 02:17:00,VALID,918.468,VALID,0,VALID,100,VALID,-0.0509425,VALID,19.8258,VALID,122,VALID,0,
2007-06-29, 02:18:00,VALID,918.474,VALID,0,VALID,100,VALID,-0.0849042,VALID,19.8528,VALID,122,VALID,0,
2007-06-29, 02:19:00,VALID,918.475,VALID,0,VALID,100,VALID,-0.0849042,VALID,19.879,VALID,122,VALID,0,
2007-06-29, 02:20:00,VALID,918.472,VALID,0,VALID,100,VALID,-0.0849042,VALID,19.8718,VALID,122,VALID,0,
2007-06-29, 02:21:00,VALID,918.449,VALID,0,VALID,100,VALID,-0.101885,VALID,19.8955,VALID,122,VALID,0,
2007-06-29, 02:22:00,VALID,918.44,VALID,0,VALID,100,VALID,-0.0679233,VALID,19.8947,VALID,122,VALID,0,
2007-06-29, 02:23:00,VALID,918.44,VALID,0,VALID,100,VALID,-0.0679233,VALID,19.8945,VALID,122,VALID,0,
2007-06-29, 02:24:00,VALID,918.432,VALID,0,VALID,100,VALID,-0.0679233,VALID,19.9042,VALID,122,VALID,0,
2007-06-29, 02:25:00,VALID,918.403,VALID,0,VALID,100,VALID,-0.0849042,VALID,19.901,VALID,122,VALID,0,
2007-06-29, 02:26:00,VALID,918.398,VALID,0,VALID,100,VALID,-0.0849042,VALID,19.9007,VALID,122,VALID,0.138579,
2007-06-29, 02:27:00,VALID,918.395,VALID,0,VALID,100,VALID,-0.0169808,VALID,19.8907,VALID,127,VALID,0.350836,
2007-06-29, 02:28:00,VALID,918.394,VALID,0,VALID,100,VALID,-0.0849042,VALID,19.8715,VALID,174,VALID,0.201736,
2007-06-29, 02:29:00,VALID,918.395,VALID,0,VALID,100,VALID,-0.0509425,VALID,19.8625,VALID,180,VALID,0.191692,
2007-06-29, 02:30:00,VALID,918.401,VALID,0,VALID,100,VALID,-0.0679233,VALID,19.8396,VALID,213,VALID,0.397892,
2007-06-29, 02:31:00,VALID,918.4,VALID,0,VALID,100,VALID,-0.0679233,VALID,19.8099,VALID,230,VALID,0.445313,
2007-06-29, 02:32:00,VALID,918.382,VALID,0,VALID,100,VALID,-0.0509425,VALID,19.7966,VALID,227,VALID,0.250908,
2007-06-29, 02:33:00,VALID,918.364,VALID,0,VALID,100,VALID,-0.0849042,VALID,19.7971,VALID,227,VALID,0.0741319,
2007-06-29, 02:34:00,VALID,918.345,VALID,0,VALID,100,VALID,-0.0679233,VALID,19.8041,VALID,227,VALID,0.226376,
2007-06-29, 02:35:00,VALID,918.342,VALID,0,VALID,100,VALID,-0.0509425,VALID,19.7872,VALID,227,VALID,0.046875,
2007-06-29, 02:36:00,VALID,918.347,VALID,0,VALID,100,VALID,-0.0509425,VALID,19.8071,VALID,227,VALID,0,
2007-06-29, 02:37:00,VALID,918.34,VALID,0,VALID,100,VALID,-0.0679233,VALID,19.8001,VALID,227,VALID,0,
2007-06-29, 02:38:00,VALID,918.341,VALID,0,VALID,100,VALID,-0.0679233,VALID,19.7966,VALID,227,VALID,0,
2007-06-29, 02:39:00,VALID,918.31,VALID,0,VALID,100,VALID,-0.0849042,VALID,19.8006,VALID,227,VALID,0.0964134,
2007-06-29, 02:40:00,VALID,918.298,VALID,0,VALID,100,VALID,-0.0679233,VALID,19.7674,VALID,227,VALID,0.0245536,
2007-06-29, 02:41:00,VALID,918.282,VALID,0,VALID,100,VALID,-0.0339617,VALID,19.7677,VALID,227,VALID,0.288517,
2007-06-29, 02:42:00,VALID,918.276,VALID,0,VALID,100,VALID,-0.0509425,VALID,19.7545,VALID,207,VALID,0.439024,
2007-06-29, 02:43:00,VALID,918.248,VALID,0,VALID,100,VALID,-0.0679233,VALID,19.736,VALID,157,VALID,0.769531,
2007-06-29, 02:44:00,VALID,918.244,VALID,0,VALID,100,VALID,-0.0339617,VALID,19.6993,VALID,143,VALID,0.767299,
2007-06-29, 02:45:00,VALID,918.226,VALID,0,VALID,100,VALID,0.0509425,VALID,19.6821,VALID,136,VALID,0.724609,
2007-06-29, 02:46:00,VALID,918.211,VALID,0,VALID,100,VALID,0.0509425,VALID,19.6629,VALID,135,VALID,0.630273,
2007-06-29, 02:47:00,VALID,918.218,VALID,0,VALID,100,VALID,0.0339617,VALID,19.6402,VALID,135,VALID,0.833008,
2007-06-29, 02:48:00,VALID,918.22,VALID,0,VALID,100,VALID,0.0509425,VALID,19.6232,VALID,136,VALID,0.936756,
2007-06-29, 02:49:00,VALID,918.224,VALID,0,VALID,100,VALID,0.0339617,VALID,19.6137,VALID,125,VALID,0.774325,
2007-06-29, 02:50:00,VALID,918.221,VALID,0,VALID,100,VALID,0.0509425,VALID,19.6209,VALID,145,VALID,0.555664,
2007-06-29, 02:51:00,VALID,918.21,VALID,0,VALID,100,VALID,0.0509425,VALID,19.6337,VALID,142,VALID,0.269271,
2007-06-29, 02:52:00,VALID,918.208,VALID,0,VALID,100,VALID,0.0509425,VALID,19.6237,VALID,103,VALID,0.460007,
2007-06-29, 02:53:00,VALID,918.206,VALID,0,VALID,100,VALID,0,VALID,19.6402,VALID,57,VALID,0.563033,
2007-06-29, 02:54:00,VALID,918.203,VALID,0,VALID,100,VALID,0.0169808,VALID,19.6402,VALID,72,VALID,0.967969,
2007-06-29, 02:55:00,VALID,918.187,VALID,0,VALID,100,VALID,0.0339617,VALID,19.6007,VALID,64,VALID,0.950195,
2007-06-29, 02:56:00,VALID,918.17,VALID,0,VALID,100,VALID,0.0509425,VALID,19.5813,VALID,66,VALID,1.06117,
2007-06-29, 02:57:00,VALID,918.193,VALID,0,VALID,100,VALID,0,VALID,19.5561,VALID,73,VALID,0.780887,
2007-06-29, 02:58:00,VALID,918.196,VALID,0,VALID,100,VALID,0,VALID,19.5294,VALID,73,VALID,0.260174,
2007-06-29, 02:59:00,VALID,918.207,VALID,0,VALID,100,VALID,0,VALID,19.5269,VALID,73,VALID,0.195508,
2007-06-29, 03:00:00,VALID,918.185,VALID,0,VALID,100,VALID,-0.0679233,VALID,19.5246,VALID,74,VALID,0.621911,
2007-06-29, 03:01:00,VALID,918.161,VALID,0,VALID,100,VALID,-0.0679233,VALID,19.5051,VALID,78,VALID,0.676258,
2007-06-29, 03:02:00,VALID,918.125,VALID,0,VALID,100,VALID,-0.0509425,VALID,19.4857,VALID,82,VALID,0.619368,
2007-06-29, 03:03:00,VALID,918.112,VALID,0,VALID,100,VALID,-0.0849042,VALID,19.4699,VALID,114,VALID,0.864644,
2007-06-29, 03:04:00,VALID,918.062,VALID,0,VALID,100,VALID,-0.0679233,VALID,19.4407,VALID,116,VALID,0.680831,
2007-06-29, 03:05:00,VALID,918.068,VALID,0,VALID,100,VALID,-0.0339617,VALID,19.4041,VALID,117,VALID,0.380451,
2007-06-29, 03:06:00,VALID,918.068,VALID,0,VALID,100,VALID,-0.0679233,VALID,19.414,VALID,117,VALID,0.301367,
2007-06-29, 03:07:00,VALID,918.083,VALID,0,VALID,100,VALID,-0.0339617,VALID,19.417,VALID,117,VALID,0.0878906,
2007-06-29, 03:08:00,VALID,918.069,VALID,0,VALID,100,VALID,-0.0679233,VALID,19.4235,VALID,119,VALID,0.33817,
2007-06-29, 03:09:00,VALID,918.059,VALID,0,VALID,100,VALID,-0.0679233,VALID,19.4145,VALID,113,VALID,0.682813,
2007-06-29, 03:10:00,VALID,918.061,VALID,0,VALID,100,VALID,-0.101885,VALID,19.4013,VALID,106,VALID,0.537919,
2007-06-29, 03:11:00,VALID,918.081,VALID,0,VALID,100,VALID,-0.0679233,VALID,19.4043,VALID,96,VALID,0.354048,
2007-06-29, 03:12:00,VALID,918.113,VALID,0,VALID,100,VALID,-0.0849042,VALID,19.3948,VALID,96,VALID,0.188045,
2007-06-29, 03:13:00,VALID,918.121,VALID,0,VALID,100,VALID,-0.0679233,VALID,19.3751,VALID,97,VALID,0.432884,
2007-06-29, 03:14:00,VALID,918.123,VALID,0,VALID,100,VALID,-0.0679233,VALID,19.3791,VALID,121,VALID,0.363467,
2007-06-29, 03:15:00,VALID,918.128,VALID,0,VALID,100,VALID,-0.0509425,VALID,19.3654,VALID,151,VALID,0.262173,
2007-06-29, 03:16:00,VALID,918.111,VALID,0,VALID,100,VALID,-0.0169808,VALID,19.3524,VALID,153,VALID,0.377858,
2007-06-29, 03:17:00,VALID,918.109,VALID,0,VALID,100,VALID,-0.0169808,VALID,19.3359,VALID,144,VALID,0.175199,
2007-06-29, 03:18:00,VALID,918.118,VALID,0,VALID,100,VALID,-0.0169808,VALID,19.3262,VALID,141,VALID,0.0480183,
2007-06-29, 03:19:00,VALID,918.116,VALID,0,VALID,100,VALID,0,VALID,19.3165,VALID,141,VALID,0.00419207,
2007-06-29, 03:20:00,VALID,918.119,VALID,0,VALID,100,VALID,-0.0339617,VALID,19.2938,VALID,141,VALID,0,
2007-06-29, 03:21:00,VALID,918.102,VALID,0,VALID,100,VALID,-0.0339617,VALID,19.2905,VALID,138,VALID,0.230556,
2007-06-29, 03:22:00,VALID,918.055,VALID,0,VALID,100,VALID,-0.0339617,VALID,19.2808,VALID,126,VALID,0.588356,
2007-06-29, 03:23:00,VALID,918.036,VALID,0,VALID,100,VALID,-0.0509425,VALID,19.2648,VALID,70,VALID,0.80878,
2007-06-29, 03:24:00,VALID,918.021,VALID,0,VALID,100,VALID,-0.0679233,VALID,19.2678,VALID,70,VALID,0.685865,
2007-06-29, 03:25:00,VALID,918.007,VALID,0,VALID,100,VALID,-0.0339617,VALID,19.2616,VALID,70,VALID,0.553735,
2007-06-29, 03:26:00,VALID,918.005,VALID,0,VALID,100,VALID,-0.0169808,VALID,19.2548,VALID,70,VALID,0.35026,
2007-06-29, 03:27:00,VALID,917.985,VALID,0,VALID,100,VALID,-0.0339617,VALID,19.2386,VALID,70,VALID,0.0535714,
2007-06-29, 03:28:00,VALID,917.962,VALID,0,VALID,100,VALID,-0.0679233,VALID,19.2259,VALID,70,VALID,0,
2007-06-29, 03:29:00,VALID,917.959,VALID,0,VALID,100,VALID,-0.0169808,VALID,19.2089,VALID,70,VALID,0,
2007-06-29, 03:30:00,VALID,917.952,VALID,0,VALID,100,VALID,0.0339617,VALID,19.2017,VALID,70,VALID,0,
2007-06-29, 03:31:00,VALID,917.966,VALID,0,VALID,100,VALID,0.0169808,VALID,19.195,VALID,70,VALID,0.33305,
2007-06-29, 03:32:00,VALID,917.973,VALID,0,VALID,100,VALID,0.0169808,VALID,19.1822,VALID,70,VALID,0.235863,
2007-06-29, 03:33:00,VALID,917.974,VALID,0,VALID,100,VALID,0.0339617,VALID,19.166,VALID,70,VALID,0.27567,
2007-06-29, 03:34:00,VALID,918.001,VALID,0,VALID,100,VALID,0.0169808,VALID,19.1498,VALID,70,VALID,0.0691964,
2007-06-29, 03:35:00,VALID,917.989,VALID,0,VALID,100,VALID,0.0169808,VALID,19.1303,VALID,70,VALID,0.0386905,
2007-06-29, 03:36:00,VALID,917.956,VALID,0,VALID,100,VALID,0.0169808,VALID,19.1209,VALID,70,VALID,0.00109012,
2007-06-29, 03:37:00,VALID,917.927,VALID,0,VALID,100,VALID,0.0339617,VALID,19.0882,VALID,70,VALID,0.184956,
2007-06-29, 03:38:00,VALID,917.908,VALID,0,VALID,100,VALID,0.0509425,VALID,19.0819,VALID,70,VALID,0.511265,
2007-06-29, 03:39:00,VALID,917.914,VALID,0,VALID,100,VALID,0.0339617,VALID,19.0884,VALID,70,VALID,0.704985,